Portada
METAR-TAF:

METAR-TAF

Aeropuertos :

Milford Municipal Airport (Ben and Judy Briscoe Field)

Milford, Utah, Estados Unidos

latitud: 38-25-21N, longitud: 113-00-35W, altitud: 1536 m

Observación

El informe se hizo hace 37 minutos, a las 02:52 UTC
Viento 7 kt del oeste-suroeste
Temperatura 2°C
Humedad 51%
Presión 1023 hPa
Visibilidad: 16.1 km
Escasas nubes a una altura de 12000 ft

METAR: KMLF 150252Z AUTO 24007KT 10SM FEW120 02/M07 A3021 RMK AO2 WSHFT 0215 SLP261 T00221067 51006

Hora: 20:29 (03:29 UTC)


TAF: falta

Observaciones y pronósticos meteorológicos de más de 4000 aeropuertos (mensajes METAR y TAF).

Los puntos amarillos y rojos representan las estaciones disponibles.

Ponga el ratón en el punto deseado para ver el nombre de la estación.

Haga clic para ver las observaciones y los pronósticos meteorológicos.

Para cambiar el mapa : haga clic en los botones verdes con una cruz de color negro para hacer un zoom, en el botón verde con un guión para alejar o en las flechas verdes para mapas adyacentes.


METAR-TAF: